This is the latest recevied weather packets stored in our database for station/object K4GSL. If no packets are shown the sender has not sent any weather packets the latest 10 day(s).
| Time | Temp. | Humidity | Pressure | Rain* | Wind** | Luminosity | Snow |
|---|---|---|---|---|---|---|---|
| 1777601997 | 22.78° C | 49% | 1018.1 hPa | 0 mm | - | 22 W/m² | - |
| 1777601693 | 22.78° C | 48% | 1018 hPa | 0 mm | - | 23 W/m² | - |
| 1777601388 | 23.33° C | 48% | 1018.2 hPa | 0 mm | - | 26 W/m² | - |
| 1777601084 | 23.33° C | 47% | 1017.9 hPa | 0 mm | - | 30 W/m² | - |
| 1777600782 | 23.33° C | 47% | 1018.2 hPa | 0 mm | - | 30 W/m² | - |
| 1777600478 | 23.89° C | 46% | 1018.1 hPa | 0 mm | - | 32 W/m² | - |
| 1777600173 | 23.89° C | 46% | 1018.1 hPa | 0 mm | - | 35 W/m² | - |
| 1777599869 | 24.44° C | 46% | 1018 hPa | 0 mm | - | 44 W/m² | - |
| 1777599565 | 24.44° C | 45% | 1018.1 hPa | 0 mm | - | 49 W/m² | - |
| 1777599262 | 25° C | 45% | 1018.2 hPa | 0 mm | - | 61 W/m² | - |
| 1777598958 | 25° C | 44% | 1018 hPa | 0 mm | - | 94 W/m² | - |
| 1777598656 | 25° C | 45% | 1018.2 hPa | 0 mm | - | 117 W/m² | - |
| 1777598351 | 25.56° C | 44% | 1018.2 hPa | 0 mm | - | 133 W/m² | - |
| 1777598050 | 25.56° C | 45% | 1018.1 hPa | 0 mm | - | 153 W/m² | - |
| 1777597749 | 25.56° C | 44% | 1018.2 hPa | 0 mm | - | 164 W/m² | - |
| 1777597445 | 25.56° C | 44% | 1018.3 hPa | 0 mm | - | 184 W/m² | - |
| 1777597140 | 25.56° C | 44% | 1018.3 hPa | 0 mm | - | 200 W/m² | - |
| 1777596836 | 25° C | 46% | 1018.4 hPa | 0 mm | - | 220 W/m² | - |
| 1777596532 | 25° C | 46% | 1018.1 hPa | 0 mm | - | 239 W/m² | - |
| 1777596230 | 25° C | 48% | 1018.4 hPa | 0 mm | - | 239 W/m² | - |
| 1777595927 | 25° C | 47% | 1018.3 hPa | 0 mm | - | 112 W/m² | - |
| 1777595621 | 25° C | 48% | 1018.4 hPa | 0 mm | - | 220 W/m² | - |
| 1777595318 | 25° C | 47% | 1018.4 hPa | 0 mm | - | 296 W/m² | - |
| 1777595014 | 25° C | 47% | 1018.4 hPa | 0 mm | - | 178 W/m² | - |
| 1777594711 | 25.56° C | 47% | 1018.5 hPa | 0 mm | - | 224 W/m² | - |
* Rain latest hour (hover to see other rain measurements)
** Current wind speed in m/s (hover to see current wind gust speed)